{"data":{"norad_id":55779,"epoch":"2026-09-20T22:00:03.000096Z","epoch_age_seconds":67036,"freshness":"FRESH","line1":"1 55779U 23028AQ  26263.91670139  .00085599  00000+0  66563-2 0  9996","line2":"2 55779  70.0005  72.0116 0005292 290.8206  96.9138 15.00777087  5776","mean_motion":15.00777087,"eccentricity":0.0005292,"inclination_deg":70.0005,"raan_deg":72.0116,"arg_perigee_deg":290.8206,"mean_anomaly_deg":96.9138,"bstar":0.0066563,"rev_number":577,"period_min":95.950292183532,"perigee_km":560.82471779593,"apogee_km":568.172803485,"semimajor_km":6942.6357606405,"source":"CELESTRAK","updated_at":"2026-09-21T09:00:33.319041Z"}}